Location: Veytaux
(46.4185°N, 6.9320°E)
Time: 07:59:13
(UTC+00:00)

USA 306 - Pass Details

Date: 27 May 2022
Orbit: 545 x 556 km, 54.0° (Epoch: 20 June)

Event Time Altitude Azimuth Distance (km) Brightness Sun altitude
Exits shadow 01:38:03 11° 272° (W) 1,767 5.1 -16.3°
Maximum altitude 01:41:48 39° 342° (NNW) 843 4.1 -16.0°
Drops below altitude 10° 01:45:46 10° 52° (NE) 1,849 6.7 -15.6°
Sets 01:48:08 0° 60° (ENE) 2,749 7.6 -15.4°
